Baton Rouge, LA

2:10 AM CST on December 16, 2019 (GMT -0600)
Baton Rouge Metro-Ryan

Weather History for KBTR - October, 2019

Change the Weather History Date:

Tuesday, October 22, 2019

  Actual Average Record
Temperature  
Mean Temperature 64 °F 68 °F  
Max Temperature 77 °F 79 °F 90 °F (1934)
Min Temperature 50 °F 56 °F 39 °F (1976)
Degree Days  
Heating Degree Days 1 2  
Month to date heating degree days 10 21  
Since 1 July heating degree days 10 23  
Cooling Degree Days 0 4  
Month to date cooling degree days 216 145  
Year to date cooling degree days 3099 2716  
Growing Degree Days 14 (Base 50)    
Moisture  
Dew Point 50 °F    
Average Humidity 57    
Maximum Humidity 93    
Minimum Humidity 21    
Precipitation  
Precipitation 0.00 in 0.16 in 4.70 in (1984)
Month to date precipitation 5.06 3.31  
Year to date precipitation 56.81 49.56  
Snow  
Snow 0.00 in - - ()
Month to date snowfall 0.0  
Since 1 July snowfall 0.0  
Since 1 September snowfall 0.0  
Snow Depth 0.00 in    
Sea Level Pressure  
Sea Level Pressure 30.11 in    
Wind  
Wind Speed 5 mph (NNW)    
Max Wind Speed 18 mph    
Max Gust Speed 24 mph    
Visibility 10 miles    
Events      
T = Trace of Precipitation, MM = Missing Value Source: NWS Daily Summary

Daily Weather History Graph

Daily Weather History Graph

Search for Another Location

Airport or City:

Astronomy

Oct. 22, 2019 Rise Set
Actual Time 7:11 AM CDT 6:26 PM CDT
Civil Twilight 6:47 AM CDT 6:50 PM CDT
Nautical Twilight 6:18 AM CDT 7:18 PM CDT
Astronomical Twilight 5:51 AM CDT 7:46 PM CDT
Moon 12:55 AM CDT (10/22) 3:03 PM CDT (10/22)
Length of Visible Light 12h 03m
Length of Day
11h 14m
Last Quarter, 37% of the Moon is Illuminated
Oct 22
Last Quarter
Oct 27
New
Nov 4
First Quarter
Nov 12
Full
Nov 19
Last Quarter

Hourly Weather History & Observations

Time (CDT) Temp. Dew Point Humidity Pressure Visibility Wind Dir Wind Speed Gust Speed Precip Events Conditions
12:53 AM 64.0 °F 62.1 °F 93% 29.99 in 10.0 mi Calm Calm - N/A   Clear
1:29 AM 64.0 °F 62.1 °F 93% 30.00 in 10.0 mi NNW 5.8 mph - N/A   Scattered Clouds
1:45 AM 64.0 °F 61.0 °F 90% 30.01 in 10.0 mi NNW 5.8 mph - N/A   Mostly Cloudy
1:53 AM 63.0 °F 61.0 °F 93% 30.01 in 10.0 mi NNW 5.8 mph - N/A   Mostly Cloudy
2:53 AM 63.0 °F 61.0 °F 93% 30.03 in 10.0 mi NNW 5.8 mph - N/A   Overcast
3:17 AM 63.0 °F 60.1 °F 90% 30.03 in 10.0 mi NNW 3.5 mph - N/A   Scattered Clouds
4:53 AM 60.1 °F 55.9 °F 86% 30.05 in 10.0 mi NW 3.5 mph - N/A   Clear
5:53 AM 57.9 °F 55.0 °F 90% 30.08 in 10.0 mi Calm Calm - N/A   Clear
6:53 AM 57.0 °F 54.0 °F 89% 30.09 in 10.0 mi Calm Calm - N/A   Clear
7:53 AM 55.0 °F 53.1 °F 93% 30.12 in 10.0 mi Calm Calm - N/A   Clear
8:53 AM 62.1 °F 54.0 °F 75% 30.15 in 10.0 mi North 3.5 mph - N/A   Clear
9:53 AM 68.0 °F 51.1 °F 55% 30.17 in 10.0 mi North 6.9 mph - N/A   Clear
10:53 AM 70.0 °F 46.9 °F 44% 30.17 in - NW 6.9 mph - N/A   Clear
11:53 AM 73.0 °F 44.1 °F 35% 30.17 in 10.0 mi NNW 10.4 mph - N/A   Unknown
12:53 PM - - N/A% 30.16 in 10.0 mi North 10.4 mph - N/A   Clear
1:53 PM 77.0 °F 37.9 °F 24% 30.14 in 10.0 mi North - - N/A   Clear
2:53 PM 75.0 °F 34.0 °F 22% 30.12 in 10.0 mi NW 16.1 mph 24.2 mph N/A   Clear
3:53 PM 75.0 °F 36.0 °F 24% 30.12 in 10.0 mi NNW 12.7 mph 19.6 mph N/A   Clear
4:53 PM 73.9 °F 37.9 °F 27% 30.11 in 10.0 mi NNW 9.2 mph 16.1 mph N/A   Clear
5:53 PM 71.1 °F 39.9 °F 32% 30.12 in 10.0 mi NNW 8.1 mph - N/A   Clear
6:53 PM 64.0 °F 43.0 °F 46% 30.13 in 10.0 mi NNW 3.5 mph - N/A   Clear
7:53 PM 57.9 °F 48.9 °F 72% 30.15 in 10.0 mi Calm Calm - N/A   Clear
8:53 PM 55.9 °F 48.9 °F 77% 30.15 in 10.0 mi Calm Calm - N/A   Clear
9:53 PM 53.1 °F 48.9 °F 86% 30.16 in 10.0 mi Calm Calm - N/A   Clear
10:53 PM 52.0 °F 48.9 °F 89% 30.17 in 10.0 mi Calm Calm - N/A   Clear
11:53 PM 51.1 °F 48.0 °F 89% 30.16 in 10.0 mi Calm Calm - N/A   Clear